Location: ????????
(55.6333°N, 37.7000°E)
Time: 17:47:41
(UTC+00:00)

Cosmos 1437 Rocket - Pass Details

Date: 19 May 2025
Orbit: 456 x 499 km, 81.2° (Epoch: 20 June)

Event Time Altitude Azimuth Distance (km) Brightness Sun altitude
Exits shadow 22:27:13 14° 148° (SSE) 1,407 4.5 -13.3°
Maximum altitude 22:29:39 28° 94° (E) 909 4.0 -13.2°
Drops below altitude 10° 22:32:42 10° 34° (NE) 1,615 6.5 -13.1°
Sets 22:34:57 0° 22° (NNE) 2,494 8.2 -13.0°
